^^
Station Historical Data
 
Daily Summary for August 17, 2018 Units:  English    Metric   Both
« Previous Day
Next Day »
Daily Weekly Monthly Yearly Custom
  Current: High: Low: Average:
Temperature: 97.3 °F TemperatureF °F 66.1 °F 81.1 °F
Dew Point: 50.8 °F DewpointF °F 45.5 °F 49.3 °F
Humidity: 21% Humidity% 18% 36%
Wind Speed: 7.4mph WindSpeedMPHmph 0mph 2.8mph
Wind Gust: 3.7mph WindSpeedGustMPHmph - -
WindSW - - WSW
Pressure: 30.02 in PressureIn in 30.02 in -
Precipitation: 0 in      
Historical Graphs
 
 
Tabular Data for August 17, 2018
Time Temperature Dew Point Pressure Wind Wind Speed Wind Gust Humidity Rainfall Rate (Hourly) solar Conditions
TemperatureF °F DewpointF °F PressureIn in Calm     Humidity% HourlyPrecipIn in SolarRadiationWatts/m^2 W/m2 Conditions
00:04 71.4 °F 45.8 °F 30.05 in Calm     40% 0 in 0.00 W/m2 CLR
00:09 71.2 °F 45.6 °F 30.05 in Calm     40% 0 in 0.00 W/m2 CLR
00:13 71.1 °F 45.5 °F 30.05 in Calm     40% 0 in 0.00 W/m2 CLR
00:19 71 °F 45.5 °F 30.05 in Calm     40% 0 in 0.00 W/m2 CLR
00:24 70.9 °F 46 °F 30.05 in Calm     41% 0 in 0.00 W/m2 CLR
00:29 70.8 °F 45.9 °F 30.05 in Calm     41% 0 in 0.00 W/m2 CLR
00:34 70.6 °F 46.4 °F 30.05 in Calm     42% 0 in 0.00 W/m2 CLR
00:39 70.5 °F 46.3 °F 30.05 in Calm     42% 0 in 0.00 W/m2 CLR
00:43 70.3 °F 46.1 °F 30.06 in Calm     42% 0 in 0.00 W/m2 CLR
00:49 70.2 °F 46.6 °F 30.06 in Calm     43% 0 in 0.00 W/m2 CLR
00:54 70 °F 46.5 °F 30.06 in Calm     43% 0 in 0.00 W/m2 CLR
00:59 69.9 °F 46.4 °F 30.06 in Calm     43% 0 in 0.00 W/m2 CLR
01:04 69.7 °F 46.2 °F 30.05 in Calm     43% 0 in 0.00 W/m2 CLR
01:09 69.6 °F 46.1 °F 30.05 in Calm     43% 0 in 0.00 W/m2 CLR
01:13 69.5 °F 46.6 °F 30.05 in Calm     44% 0 in 0.00 W/m2 CLR
01:19 69.3 °F 46.4 °F 30.05 in Calm     44% 0 in 0.00 W/m2 CLR
01:23 69.2 °F 46.4 °F 30.05 in Calm     44% 0 in 0.00 W/m2 CLR
01:29 69.1 °F 46.3 °F 30.05 in Calm     44% 0 in 0.00 W/m2 CLR
01:34 69 °F 46.8 °F 30.05 in Calm     45% 0 in 0.00 W/m2 CLR
01:39 68.8 °F 46.6 °F 30.05 in Calm     45% 0 in 0.00 W/m2 CLR
01:43 68.8 °F 46.6 °F 30.05 in Calm     45% 0 in 0.00 W/m2 CLR
01:49 68.7 °F 47.1 °F 30.05 in Calm     46% 0 in 0.00 W/m2 CLR
01:53 68.6 °F 47 °F 30.05 in Calm     46% 0 in 0.00 W/m2 CLR
01:59 68.5 °F 46.9 °F 30.05 in Calm     46% 0 in 0.00 W/m2 CLR
02:04 68.5 °F 46.9 °F 30.05 in Calm     46% 0 in 0.00 W/m2 CLR
02:09 68.4 °F 46.8 °F 30.05 in Calm     46% 0 in 0.00 W/m2 CLR
02:13 68.3 °F 46.7 °F 30.05 in Calm     46% 0 in 0.00 W/m2 CLR
02:19 68.3 °F 46.7 °F 30.05 in Calm     46% 0 in 0.00 W/m2 CLR
02:23 68.2 °F 47.2 °F 30.05 in Calm     47% 0 in 0.00 W/m2 CLR
02:29 68.1 °F 47.1 °F 30.05 in Calm     47% 0 in 0.00 W/m2 CLR
02:34 68 °F 47 °F 30.05 in Calm     47% 0 in 0.00 W/m2 CLR
02:39 67.9 °F 46.9 °F 30.05 in Calm     47% 0 in 0.00 W/m2 CLR
02:43 67.9 °F 47.5 °F 30.05 in Calm     48% 0 in 0.00 W/m2 CLR
02:49 67.9 °F 47.5 °F 30.05 in Calm     48% 0 in 0.00 W/m2 CLR
02:53 67.8 °F 47.4 °F 30.05 in Calm     48% 0 in 0.00 W/m2 CLR
02:59 67.8 °F 46.8 °F 30.05 in Calm     47% 0 in 0.00 W/m2 CLR
03:04 67.7 °F 47.3 °F 30.05 in Calm     48% 0 in 0.00 W/m2 CLR
03:09 67.7 °F 47.3 °F 30.05 in Calm     48% 0 in 0.00 W/m2 CLR
03:13 67.6 °F 47.2 °F 30.05 in Calm     48% 0 in 0.00 W/m2 CLR
03:19 67.6 °F 47.2 °F 30.05 in Calm     48% 0 in 0.00 W/m2 CLR
03:23 67.5 °F 47.1 °F 30.05 in Calm     48% 0 in 0.00 W/m2 CLR
03:29 67.4 °F 47 °F 30.05 in Calm     48% 0 in 0.00 W/m2 CLR
03:34 67.3 °F 47.5 °F 30.05 in Calm     49% 0 in 0.00 W/m2 CLR
03:39 67.3 °F 48 °F 30.05 in Calm     50% 0 in 0.00 W/m2 CLR
03:44 67.2 °F 47.9 °F 30.05 in Calm     50% 0 in 0.00 W/m2 CLR
03:48 67.2 °F 47.9 °F 30.05 in Calm     50% 0 in 0.00 W/m2 CLR
03:54 67.1 °F 47.3 °F 30.05 in Calm     49% 0 in 0.00 W/m2 CLR
03:59 67 °F 47.7 °F 30.05 in Calm     50% 0 in 0.00 W/m2 CLR
04:04 67 °F 47.2 °F 30.05 in Calm     49% 0 in 0.00 W/m2 CLR
04:09 66.9 °F 47.1 °F 30.05 in Calm     49% 0 in 0.00 W/m2 CLR
04:14 66.8 °F 47 °F 30.05 in Calm     49% 0 in 0.00 W/m2 CLR
04:18 66.8 °F 47 °F 30.05 in Calm     49% 0 in 0.00 W/m2 CLR
04:24 66.7 °F 46.9 °F 30.05 in Calm     49% 0 in 0.00 W/m2 CLR
04:29 66.7 °F 46.9 °F 30.05 in Calm     49% 0 in 0.00 W/m2 CLR
04:34 66.7 °F 47.5 °F 30.05 in Calm     50% 0 in 0.00 W/m2 CLR
04:39 66.6 °F 47.4 °F 30.05 in Calm     50% 0 in 0.00 W/m2 CLR
04:44 66.6 °F 47.4 °F 30.05 in Calm     50% 0 in 0.00 W/m2 CLR
04:48 66.6 °F 48.4 °F 30.05 in Calm     52% 0 in 0.00 W/m2 CLR
04:54 66.6 °F 47.4 °F 30.05 in Calm     50% 0 in 0.00 W/m2 CLR
04:59 66.5 °F 47.3 °F 30.05 in Calm     50% 0 in 0.00 W/m2 CLR
05:04 66.5 °F 47.3 °F 30.06 in Calm     50% 0 in 0.00 W/m2 CLR
05:09 66.6 °F 47.4 °F 30.06 in Calm     50% 0 in 0.00 W/m2 CLR
05:14 66.6 °F 46.8 °F 30.06 in Calm     49% 0 in 0.00 W/m2 CLR
05:18 66.6 °F 46.8 °F 30.06 in Calm     49% 0 in 0.00 W/m2 CLR
05:24 66.7 °F 46.9 °F 30.06 in Calm     49% 0 in 0.00 W/m2 CLR
05:28 66.7 °F 47.5 °F 30.06 in Calm     50% 0 in 0.00 W/m2 CLR
05:34 66.8 °F 47.6 °F 30.06 in Calm     50% 0 in 0.00 W/m2 CLR
05:39 66.8 °F 47.6 °F 30.06 in Calm     50% 0 in 0.00 W/m2 CLR
05:43 66.8 °F 48.1 °F 30.06 in Calm     51% 0 in 0.00 W/m2 CLR
05:48 66.8 °F 47.6 °F 30.06 in Calm     50% 0 in 0.00 W/m2 CLR
05:54 66.7 °F 47.5 °F 30.06 in Calm     50% 0 in 0.00 W/m2 CLR
05:58 66.7 °F 47.5 °F 30.06 in Calm     50% 0 in 0.00 W/m2 CLR
06:04 66.6 °F 46.8 °F 30.07 in Calm     49% 0 in 0.00 W/m2 CLR
06:09 66.5 °F 46.7 °F 30.07 in Calm     49% 0 in 0.00 W/m2 CLR
06:13 66.5 °F 46.7 °F 30.07 in Calm     49% 0 in 0.00 W/m2 CLR
06:18 66.4 °F 46.7 °F 30.07 in Calm     49% 0 in 0.00 W/m2 CLR
06:24 66.4 °F 46.7 °F 30.07 in Calm     49% 0 in 0.00 W/m2 CLR
06:28 66.3 °F 46.6 °F 30.07 in Calm     49% 0 in 0.00 W/m2 CLR
06:34 66.3 °F 47.1 °F 30.07 in Calm     50% 0 in 5.00 W/m2 CLR
06:39 66.3 °F 47.1 °F 30.08 in Calm     50% 0 in 7.00 W/m2 CLR
06:43 66.3 °F 47.1 °F 30.08 in Calm     50% 0 in 9.00 W/m2 CLR
06:48 66.2 °F 47 °F 30.08 in Calm     50% 0 in 9.00 W/m2 CLR
06:54 66.2 °F 47.5 °F 30.08 in Calm     51% 0 in 11.00 W/m2 CLR
06:58 66.2 °F 47.5 °F 30.08 in Calm     51% 0 in 12.00 W/m2 CLR
07:04 66.2 °F 48 °F 30.09 in Calm     52% 0 in 12.00 W/m2 CLR
07:09 66.1 °F 48 °F 30.09 in Calm     52% 0 in 14.00 W/m2 CLR
07:13 66.1 °F 48 °F 30.09 in Calm     52% 0 in 16.00 W/m2 CLR
07:19 66.2 °F 48 °F 30.09 in Calm     52% 0 in 18.00 W/m2 CLR
07:24 66.2 °F 48.6 °F 30.09 in Calm     53% 0 in 19.00 W/m2 CLR
07:29 66.3 °F 48.7 °F 30.09 in Calm     53% 0 in 19.00 W/m2 CLR
07:34 66.5 °F 48.8 °F 30.09 in Calm     53% 0 in 21.00 W/m2 CLR
07:39 66.6 °F 49.4 °F 30.09 in Calm     54% 0 in 23.00 W/m2 CLR
07:44 66.7 °F 49.5 °F 30.09 in Calm     54% 0 in 23.00 W/m2 CLR
07:49 66.9 °F 49.7 °F 30.09 in Calm     54% 0 in 25.00 W/m2 CLR
07:53 67.1 °F 49.4 °F 30.09 in ESE 2.3 mph   53% 0 in 26.00 W/m2 CLR
07:59 67.4 °F 50.2 °F 30.09 in ESE 2.3 mph 0.2 mph 54% 0 in 26.00 W/m2 CLR
08:04 67.7 °F 50.5 °F 30.10 in Calm     54% 0 in 28.00 W/m2 CLR
08:09 68.1 °F 50.3 °F 30.10 in Calm     53% 0 in 30.00 W/m2 CLR
08:14 68.6 °F 50.8 °F 30.10 in ESE 2.3 mph 0.6 mph 53% 0 in 91.00 W/m2 CLR
08:19 69 °F 51.2 °F 30.10 in Calm     53% 0 in 313.00 W/m2 CLR
08:23 69.5 °F 51.1 °F 30.10 in ESE 2.3 mph 0.2 mph 52% 0 in 329.00 W/m2 CLR
08:29 70.3 °F 51.3 °F 30.10 in Calm     51% 0 in 346.00 W/m2 CLR
08:34 71.1 °F 52 °F 30.10 in ESE 3.7 mph 1.3 mph 51% 0 in 366.00 W/m2 CLR
08:39 72.2 °F 51.4 °F 30.10 in Calm     48% 0 in 378.00 W/m2 CLR
08:44 73.5 °F 51.4 °F 30.10 in South 5.8 mph 0.5 mph 46% 0 in 396.00 W/m2 CLR
08:49 74.4 °F 51.7 °F 30.09 in South 2.3 mph 0.2 mph 45% 0 in 413.00 W/m2 CLR
08:53 75.4 °F 52 °F 30.09 in South 5.8 mph 2.4 mph 44% 0 in 427.00 W/m2 CLR
08:59 76.4 °F 51.6 °F 30.09 in Calm     42% 0 in 445.00 W/m2 CLR
09:04 77.4 °F 51.9 °F 30.09 in West 3.7 mph 1.8 mph 41% 0 in 461.00 W/m2 CLR
09:09 78.4 °F 52.7 °F 30.09 in Calm     41% 0 in 473.00 W/m2 CLR
09:14 79.6 °F 52.5 °F 30.09 in West 2.3 mph   39% 0 in 489.00 W/m2 CLR
09:19 80.3 °F 52.4 °F 30.09 in Calm     38% 0 in 503.00 W/m2 CLR
09:23 81.1 °F 52.4 °F 30.09 in West 1.9 mph   37% 0 in 515.00 W/m2 CLR
09:29 82 °F 52.4 °F 30.09 in Calm     36% 0 in 531.00 W/m2 CLR
09:34 82.8 °F 51.6 °F 30.08 in South 1.9 mph 0.3 mph 34% 0 in 547.00 W/m2 CLR
09:39 83.6 °F 52.3 °F 30.08 in Calm     34% 0 in 561.00 W/m2 CLR
09:44 84.4 °F 52.1 °F 30.08 in South 2.3 mph   33% 0 in 573.00 W/m2 CLR
09:48 85.2 °F 51.1 °F 30.08 in South 2.3 mph 0.1 mph 31% 0 in 584.00 W/m2 CLR
09:53 86.1 °F 53.6 °F 30.08 in South 3.5 mph 0.2 mph 33% 0 in 599.00 W/m2 CLR
09:59 86.8 °F 54.2 °F 30.07 in WSW 2.3 mph 0.6 mph 33% 0 in 612.00 W/m2 CLR
10:03 87.2 °F 53.7 °F 30.08 in West 2.3 mph 0.3 mph 32% 0 in 621.00 W/m2 CLR
10:09 87.9 °F 56 °F 30.08 in WSW 2.3 mph 0.6 mph 34% 0 in 603.00 W/m2 CLR
10:14 88.6 °F 51.3 °F 30.07 in WSW 3.5 mph 0.8 mph 28% 0 in 118.00 W/m2 CLR
10:18 89 °F 51.7 °F 30.07 in West 5.6 mph 3.9 mph 28% 0 in 657.00 W/m2 CLR
10:23 89.5 °F 51.1 °F 30.08 in West 3.7 mph 3.4 mph 27% 0 in 671.00 W/m2 CLR
10:29 89.7 °F 51.3 °F 30.07 in West 2.3 mph 0.1 mph 27% 0 in 684.00 W/m2 CLR
10:33 90 °F 51.5 °F 30.07 in WSW 5.8 mph 4.5 mph 27% 0 in 694.00 W/m2 CLR
10:39 90.5 °F 52 °F 30.07 in West 2.3 mph   27% 0 in 707.00 W/m2 CLR
10:44 90.9 °F 51.3 °F 30.07 in SSE 1.9 mph 0.2 mph 26% 0 in 717.00 W/m2 CLR
10:48 91.1 °F 53.5 °F 30.07 in NE 2.3 mph 0.6 mph 28% 0 in 728.00 W/m2 CLR
10:53 91.5 °F 52.8 °F 30.07 in NE 2.3 mph 0.1 mph 27% 0 in 735.00 W/m2 CLR
10:59 92 °F 52.2 °F 30.07 in West 2.3 mph 0.3 mph 26% 0 in 747.00 W/m2 CLR
11:04 92.5 °F 51.6 °F 30.07 in NNW 5.8 mph 4.6 mph 25% 0 in 758.00 W/m2 CLR
11:09 93 °F 52 °F 30.07 in NW 2.3 mph   25% 0 in 768.00 W/m2 CLR
11:14 93.5 °F 51.3 °F 30.07 in NNW 9.2 mph 4.3 mph 24% 0 in 773.00 W/m2 CLR
11:18 93.8 °F 55.8 °F 30.07 in ESE 5.8 mph 6.2 mph 28% 0 in 782.00 W/m2 CLR
11:24 94.3 °F 52 °F 30.06 in NW 7.4 mph 5.7 mph 24% 0 in 789.00 W/m2 CLR
11:29 94.7 °F 52.3 °F 30.06 in WSW 7.4 mph 7.3 mph 24% 0 in 793.00 W/m2 CLR
11:34 95.1 °F 51.5 °F 30.06 in NW 2.3 mph 1.4 mph 23% 0 in 803.00 W/m2 CLR
11:39 95.5 °F 51.8 °F 30.06 in WNW 2.3 mph 0.3 mph 23% 0 in 809.00 W/m2 CLR
11:44 95.8 °F 52.1 °F 30.06 in SW 9.2 mph 4.4 mph 23% 0 in 817.00 W/m2 CLR
11:49 96 °F 53.4 °F 30.06 in West 5.8 mph 3 mph 24% 0 in 824.00 W/m2 CLR
11:54 96.3 °F 52.5 °F 30.06 in WSW 5.8 mph 3.6 mph 23% 0 in 833.00 W/m2 CLR
11:58 96.6 °F 51.5 °F 30.06 in NW 9.2 mph 6.8 mph 22% 0 in 835.00 W/m2 CLR
12:04 96.7 °F 51.6 °F 30.06 in North 12.7 mph 9.4 mph 22% 0 in 840.00 W/m2 CLR
12:09 96.7 °F 51.6 °F 30.06 in WNW 11.5 mph 5.9 mph 22% 0 in 844.00 W/m2 CLR
12:14 96.8 °F 51.7 °F 30.06 in West 3.7 mph 1.9 mph 22% 0 in 849.00 W/m2 CLR
12:19 96.8 °F 51.7 °F 30.06 in ENE 13 mph 9.1 mph 22% 0 in 854.00 W/m2 CLR
12:24 96.9 °F 51.8 °F 30.06 in WNW 6.9 mph 0.2 mph 22% 0 in 860.00 W/m2 CLR
12:28 97 °F 51.9 °F 30.05 in West 5.6 mph 2.6 mph 22% 0 in 865.00 W/m2 CLR
12:34 97.2 °F 52 °F 30.05 in WSW 3.7 mph 2.8 mph 22% 0 in 868.00 W/m2 CLR
12:39 97.5 °F 51 °F 30.05 in WSW 13 mph 4 mph 21% 0 in 872.00 W/m2 CLR
12:44 97.7 °F 52.4 °F 30.05 in NW 2.3 mph 0.2 mph 22% 0 in 872.00 W/m2 CLR
12:49 97.9 °F 52.6 °F 30.05 in West 9.2 mph 5.4 mph 22% 0 in 870.00 W/m2 CLR
12:54 98.1 °F 51.5 °F 30.05 in SW 5.8 mph 1.7 mph 21% 0 in 867.00 W/m2 CLR
12:58 98.1 °F 52.8 °F 30.05 in West 5.8 mph 2.4 mph 22% 0 in 870.00 W/m2 CLR
13:04 98.1 °F 51.5 °F 30.06 in WSW 16.6 mph 7 mph 21% 0 in 872.00 W/m2 CLR
13:09 97.7 °F 49.9 °F 30.06 in NNW 2.3 mph 0.7 mph 20% 0 in 870.00 W/m2 CLR
13:14 97.5 °F 51 °F 30.06 in North 9.2 mph 4.8 mph 21% 0 in 867.00 W/m2 CLR
13:18 97.4 °F 50.9 °F 30.06 in West 5.8 mph 1 mph 21% 0 in 861.00 W/m2 CLR
13:24 97.4 °F 52.2 °F 30.06 in West 11.5 mph 10.8 mph 22% 0 in 863.00 W/m2 CLR
13:28 97 °F 51.9 °F 30.06 in WNW 12.7 mph 12.3 mph 22% 0 in 860.00 W/m2 CLR
13:34 96.6 °F 52.7 °F 30.06 in NW 3.7 mph 1.8 mph 23% 0 in 861.00 W/m2 CLR
13:39 96.6 °F 52.7 °F 30.06 in NNW 5.6 mph 0.5 mph 23% 0 in 856.00 W/m2 CLR
13:44 96.6 °F 52.7 °F 30.06 in North 12.7 mph 5.1 mph 23% 0 in 861.00 W/m2 CLR
13:49 96.6 °F 50.3 °F 30.06 in WSW 16.6 mph 11.2 mph 21% 0 in 854.00 W/m2 CLR
13:53 96.6 °F 51.5 °F 30.06 in West 6.9 mph 0.5 mph 22% 0 in 854.00 W/m2 CLR
13:58 96.8 °F 49.1 °F 30.06 in NNW 7.4 mph 4.5 mph 20% 0 in 846.00 W/m2 CLR
14:04 96.8 °F 51.7 °F 30.06 in NW 7.4 mph 3.3 mph 22% 0 in 842.00 W/m2 CLR
14:08 96.7 °F 49 °F 30.06 in WNW 5.6 mph 2.7 mph 20% 0 in 835.00 W/m2 CLR
14:14 96.7 °F 54 °F 30.06 in ENE 2.3 mph 0.2 mph 24% 0 in 830.00 W/m2 CLR
14:19 96.8 °F 50.4 °F 30.06 in WSW 5.8 mph 1.8 mph 21% 0 in 824.00 W/m2 CLR
14:23 97 °F 50.6 °F 30.06 in West 9.2 mph 5.8 mph 21% 0 in 819.00 W/m2 CLR
14:28 97.2 °F 50.8 °F 30.06 in West 7.4 mph 7.2 mph 21% 0 in 812.00 W/m2 CLR
14:34 97.3 °F 49.5 °F 30.06 in WNW 9.2 mph 5.5 mph 20% 0 in 807.00 W/m2 CLR
14:39 97.4 °F 50.9 °F 30.05 in NW 2.3 mph 0.6 mph 21% 0 in 802.00 W/m2 CLR
14:44 97.7 °F 49.9 °F 30.05 in North 6.9 mph 2.6 mph 20% 0 in 796.00 W/m2 CLR
14:49 97.6 °F 49.8 °F 30.05 in NE 6.9 mph 1.1 mph 20% 0 in 788.00 W/m2 CLR
14:53 97.7 °F 51.2 °F 30.05 in SW 7.4 mph 5.2 mph 21% 0 in 779.00 W/m2 CLR
14:59 97.9 °F 50 °F 30.05 in North 2.3 mph 0.2 mph 20% 0 in 772.00 W/m2 CLR
15:04 98.2 °F 50.3 °F 30.05 in West 5.6 mph 2.7 mph 20% 0 in 761.00 W/m2 CLR
15:09 98.2 °F 50.3 °F 30.05 in NW 7.4 mph 2.9 mph 20% 0 in 752.00 W/m2 CLR
15:14 98.1 °F 50.2 °F 30.05 in West 9.2 mph 2.6 mph 20% 0 in 745.00 W/m2 CLR
15:19 98.2 °F 50.3 °F 30.05 in NNW 5.6 mph 3.3 mph 20% 0 in 735.00 W/m2 CLR
15:23 98.4 °F 51.7 °F 30.05 in NNW 2.3 mph 0.2 mph 21% 0 in 726.00 W/m2 CLR
15:29 98.7 °F 50.7 °F 30.04 in Calm     20% 0 in 715.00 W/m2 CLR
15:34 99.1 °F 51 °F 30.04 in South 2.3 mph 1 mph 20% 0 in 707.00 W/m2 CLR
15:39 99.2 °F 51.1 °F 30.03 in SSW 1.9 mph 0.5 mph 20% 0 in 693.00 W/m2 CLR
15:44 99.4 °F 49.9 °F 30.03 in NW 7.4 mph 3.6 mph 19% 0 in 684.00 W/m2 CLR
15:49 99.6 °F 52.7 °F 30.03 in North 11.5 mph 5 mph 21% 0 in 671.00 W/m2 CLR
15:53 99.4 °F 52.6 °F 30.03 in West 5.8 mph 1.4 mph 21% 0 in 661.00 W/m2 CLR
15:59 99.4 °F 49.9 °F 30.03 in West 11.5 mph 9.4 mph 19% 0 in 650.00 W/m2 CLR
16:03 99.4 °F 51.2 °F 30.03 in NW 5.8 mph 0.5 mph 20% 0 in 629.00 W/m2 CLR
16:09 99.5 °F 51.3 °F 30.03 in North 2.3 mph   20% 0 in 621.00 W/m2 CLR
16:14 99.6 °F 51.4 °F 30.03 in WNW 5.8 mph   20% 0 in 606.00 W/m2 CLR
16:19 99.6 °F 48.6 °F 30.03 in WNW 3.5 mph 0.7 mph 18% 0 in 589.00 W/m2 CLR
16:23 99.9 °F 50.3 °F 30.03 in West 9.2 mph 5.4 mph 19% 0 in 587.00 W/m2 CLR
16:29 100 °F 50.3 °F 30.03 in West 3.7 mph 1.8 mph 19% 0 in 566.00 W/m2 CLR
16:33 100 °F 50.3 °F 30.03 in NW 3.5 mph 2 mph 19% 0 in 554.00 W/m2 CLR
16:39 100 °F 51.7 °F 30.02 in Calm     20% 0 in 540.00 W/m2 CLR
16:44 100.1 °F 49 °F 30.02 in NNE 7.4 mph 3.9 mph 18% 0 in 522.00 W/m2 CLR
16:49 100.1 °F 50.4 °F 30.02 in WSW 5.8 mph 4.9 mph 19% 0 in 510.00 W/m2 CLR
16:53 100.1 °F 50.4 °F 30.02 in SW 3.7 mph 1.9 mph 19% 0 in 496.00 W/m2 CLR
16:59 100 °F 50.3 °F 30.02 in WNW 5.8 mph 0.7 mph 19% 0 in 478.00 W/m2 CLR
17:03 100 °F 50.3 °F 30.02 in WSW 11.1 mph 9.9 mph 19% 0 in 468.00 W/m2 CLR
17:09 99.8 °F 48.7 °F 30.02 in Calm     18% 0 in 445.00 W/m2 CLR
17:14 99.9 °F 51.7 °F 30.02 in West 5.8 mph 2.1 mph 20% 0 in 424.00 W/m2 CLR
17:19 100 °F 53.1 °F 30.02 in West 2.3 mph 0.1 mph 21% 0 in 411.00 W/m2 CLR
17:23 99.9 °F 48.8 °F 30.02 in West 2.3 mph 0.3 mph 18% 0 in 399.00 W/m2 CLR
17:29 99.7 °F 48.7 °F 30.02 in NW 3.5 mph 0.8 mph 18% 0 in 308.00 W/m2 CLR
17:33 99 °F 52.2 °F 30.02 in SE 2.3 mph   21% 0 in 60.00 W/m2 CLR
17:39 98.3 °F 50.3 °F 30.02 in WSW 3.7 mph 2.1 mph 20% 0 in 54.00 W/m2 CLR
17:43 97.8 °F 49.9 °F 30.02 in NW 2.3 mph 0.5 mph 20% 0 in 53.00 W/m2 CLR
17:49 97.3 °F 50.8 °F 30.02 in SW 7.4 mph 3.7 mph 21% 0 in 47.00 W/m2 CLR
El Dorado Weather
Compliments of Weather Underground - 3 mb




Google